Weather History for Beaumont, TX

Change the Weather History Date:

Friday, May 4, 2012

  Actual Average Record
Temperature  
Mean Temperature 77 °F 73 °F  
Max Temperature 86 °F 82 °F 92 °F (1943)
Min Temperature 67 °F 64 °F 42 °F (2013)
Degree Days  
Heating Degree Days 0 0  
Month to date heating degree days 0 0  
Since 1 July heating degree days 866 1400  
Cooling Degree Days 12 8  
Month to date cooling degree days 50 32  
Year to date cooling degree days 507 259  
Growing Degree Days 26 (Base 50)    
Moisture  
Dew Point 70 °F    
Average Humidity 78    
Maximum Humidity 100    
Minimum Humidity 55    
Precipitation  
Precipitation 0.00 in 0.16 in 2.70 in (1904)
Month to date precipitation 0.00 0.63  
Year to date precipitation 25.24 16.21  
Snow  
Snow 0.00 in 0.00 in 0.00 in ()
Month to date snowfall 0.0 0.0  
Since 1 July snowfall 0.0 T  
Snow Depth 0.00 in    
Sea Level Pressure  
Sea Level Pressure 29.98 in    
Wind  
Wind Speed 7 mph (South)    
Max Wind Speed 16 mph    
Max Gust Speed 23 mph    
Visibility 5 miles    
Events Fog    
T = Trace of Precipitation, MM = Missing Value Source: NWS Daily Summary

Daily Weather History Graph

Daily Weather History Graph

Search for Another Location

Airport:

Trip Planner

Search our weather history database for the weather conditions in past years. The results will help you decide how hot, cold, wet, or windy it might be!

Date:

Astronomy

May. 04, 2012 Rise Set
Actual Time 6:30 AM CDT 7:55 PM CDT
Civil Twilight 6:04 AM CDT 8:21 PM CDT
Nautical Twilight 5:34 AM CDT 8:51 PM CDT
Astronomical Twilight 5:02 AM CDT 9:23 PM CDT
Moon 6:37 PM CDT (5/4) 5:05 AM CDT (5/4)
Length of Visible Light 14h 16m
Length of Day
13h 25m
Waxing Gibbous, 97% of the Moon is Illuminated
May 4
Waxing Gibbous
May 5
Full
May 12
Last Quarter
May 20
New
May 28
First Quarter

Hourly Weather History & Observations

Time (CDT) Temp. Heat Index Dew Point Humidity Pressure Visibility Wind Dir Wind Speed Gust Speed Precip Events Conditions
12:53 AM 72.0 °F - 70.0 °F 93% 30.00 in 5.0 mi Calm Calm - N/A   Clear
1:53 AM 71.1 °F - 70.0 °F 96% 29.99 in 7.0 mi South 4.6 mph - N/A   Clear
2:43 AM 69.8 °F - 69.8 °F 100% 29.98 in 1.8 mi Calm Calm - N/A   Clear
2:53 AM 70.0 °F - 70.0 °F 100% 29.99 in 1.0 mi Calm Calm - N/A   Clear
3:13 AM 69.8 °F - 69.8 °F 100% 29.99 in 0.2 mi Calm Calm - N/A Fog Fog
3:53 AM 69.1 °F - 68.0 °F 96% 29.97 in 0.2 mi Calm Calm - N/A Fog Fog
4:25 AM 69.8 °F - 69.8 °F 100% 29.97 in 1.0 mi SW 3.5 mph - N/A   Mostly Cloudy
4:32 AM 69.8 °F - 69.8 °F 100% 29.97 in 1.0 mi WSW 3.5 mph - N/A   Scattered Clouds
4:45 AM 69.8 °F - 69.8 °F 100% 29.98 in 1.0 mi WSW 4.6 mph - N/A   Mist
4:49 AM 69.8 °F - 69.8 °F 100% 29.98 in 0.8 mi WSW 3.5 mph - N/A   Mist
4:53 AM 70.0 °F - 69.1 °F 97% 29.98 in 0.5 mi WSW 3.5 mph - N/A Fog Fog
5:17 AM 69.8 °F - 69.8 °F 100% 29.98 in 0.2 mi Calm Calm - N/A Fog Fog
5:30 AM 69.8 °F - 69.8 °F 100% 29.98 in 0.2 mi Calm Calm - N/A Fog Fog
5:46 AM 66.2 °F - 66.2 °F 100% 29.98 in 0.2 mi Calm Calm - N/A Fog Fog
5:53 AM 68.0 °F - 66.9 °F 96% 29.98 in 0.2 mi Calm Calm - N/A Fog Fog
6:00 AM 66.2 °F - 66.2 °F 100% 29.98 in 0.2 mi Calm Calm - N/A Fog Fog
6:07 AM 68.0 °F - 66.2 °F 94% 29.98 in 0.2 mi Calm Calm - N/A Fog Fog
6:22 AM 69.8 °F - 69.8 °F 100% 29.98 in 0.2 mi Calm Calm - N/A Fog Fog
6:29 AM 69.8 °F - 69.8 °F 100% 29.98 in 0.5 mi Calm Calm - N/A Fog Fog
6:37 AM 68.0 °F - 68.0 °F 100% 29.99 in 0.2 mi Calm Calm - N/A Fog Fog
6:53 AM 66.9 °F - 66.9 °F 100% 29.98 in 0.2 mi SSE 3.5 mph - N/A Fog Fog
7:10 AM 69.8 °F - 68.0 °F 94% 29.98 in 3.0 mi SSE 3.5 mph - N/A   Partly Cloudy
7:53 AM 73.9 °F - 73.0 °F 97% 30.00 in 3.0 mi SSW 4.6 mph - N/A   Partly Cloudy
8:53 AM 78.1 °F - 72.0 °F 81% 30.00 in 10.0 mi South 4.6 mph - 0.00 in   Mostly Cloudy
9:53 AM 81.0 °F 84.9 °F 71.1 °F 72% 30.00 in 10.0 mi SSW 6.9 mph - N/A   Scattered Clouds
10:53 AM 82.9 °F 87.0 °F 70.0 °F 65% 30.00 in 10.0 mi SSE 9.2 mph - N/A   Scattered Clouds
11:53 AM 84.0 °F 87.8 °F 69.1 °F 61% 30.00 in 10.0 mi SE 10.4 mph - 0.01 in   Scattered Clouds
12:53 PM 86.0 °F 89.4 °F 68.0 °F 55% 29.99 in 10.0 mi SSE 9.2 mph - N/A   Clear
1:53 PM 86.0 °F 89.4 °F 68.0 °F 55% 29.99 in 10.0 mi SE 11.5 mph 20.7 mph N/A   Partly Cloudy
2:53 PM 84.9 °F 89.4 °F 70.0 °F 61% 29.99 in 10.0 mi South 12.7 mph 23.0 mph N/A   Mostly Cloudy
3:53 PM 84.0 °F 88.4 °F 70.0 °F 63% 29.97 in 10.0 mi South 9.2 mph 16.1 mph N/A   Mostly Cloudy
4:53 PM 84.0 °F 88.4 °F 70.0 °F 63% 29.96 in 10.0 mi South 9.2 mph - N/A   Clear
5:53 PM 82.9 °F 87.0 °F 70.0 °F 65% 29.96 in 10.0 mi South 10.4 mph - N/A   Partly Cloudy
6:53 PM 80.1 °F 83.6 °F 71.1 °F 74% 29.95 in 10.0 mi South 10.4 mph - N/A   Clear
7:53 PM 77.0 °F - 71.1 °F 82% 29.94 in 10.0 mi SSE 9.2 mph - N/A   Clear
8:53 PM 75.9 °F - 72.0 °F 87% 29.94 in 10.0 mi SSE 9.2 mph - N/A   Clear
9:53 PM 75.0 °F - 72.0 °F 90% 29.95 in 10.0 mi SSE 5.8 mph - N/A   Clear
10:53 PM 73.9 °F - 72.0 °F 93% 29.99 in 9.0 mi South 3.5 mph - N/A   Clear
11:53 PM 73.0 °F - 72.0 °F 96% 29.97 in 9.0 mi South 4.6 mph - N/A   Clear